owner,sensor,date,latitude,longitude,vertical_datum,direction_of_sea_water_velocity,sea_water_speed,upward_sea_water_velocity,qcFlag 
TABS,ioos:station:wmo:42050:1,2010-12-01T00:00:00Z,28.8425,-94.2433,2.0,105.4185842,10.75716041,-99999.0,'11111222,11111222,99999999' 
TABS,ioos:station:wmo:42050:1,2010-12-01T00:30:00Z,28.8425,-94.2433,2.0,98.79902683,12.35541177,-99999.0,'11111222,11111222,99999999' 
TABS,ioos:station:wmo:42050:1,2010-12-01T01:00:00Z,28.8425,-94.2433,2.0,88.82545225,15.12317758,-99999.0,'11111222,11111222,99999999' 
TABS,ioos:station:wmo:42050:1,2010-12-01T01:30:00Z,28.8425,-94.2433,2.0,96.16482737,14.43346805,-99999.0,'11111222,11111222,99999999' 
TABS,ioos:station:wmo:42050:1,2010-12-01T02:00:00Z,28.8425,-94.2433,2.0,78.07015433,14.31927722,-99999.0,'11111222,11111222,99999999' 
TABS,ioos:station:wmo:42050:1,2010-12-01T02:30:00Z,28.8425,-94.2433,2.0,86.98556994,18.25525952,-99999.0,'11111222,11111222,99999999' 
TABS,ioos:station:wmo:42050:1,2010-12-01T03:00:00Z,28.8425,-94.2433,2.0,91.64114534,14.31587231,-99999.0,'11111222,11111222,99999999' 
TABS,ioos:station:wmo:42050:1,2010-12-01T03:30:00Z,28.8425,-94.2433,2.0,80.93196328,19.35186296,-99999.0,'11111222,11111222,99999999' 
TABS,ioos:station:wmo:42050:1,2010-12-01T04:00:00Z,28.8425,-94.2433,2.0,73.66399531,17.52761535,-99999.0,'11111222,11111222,99999999' 
TABS,ioos:station:wmo:42050:1,2010-12-01T04:30:00Z,28.8425,-94.2433,2.0,76.82959028,16.85329938,-99999.0,'11111222,11111222,99999999' 
TABS,ioos:station:wmo:42050:1,2010-12-01T05:00:00Z,28.8425,-94.2433,2.0,76.51094572,16.76240138,-99999.0,'11111222,11111222,99999999' 
TABS,ioos:station:wmo:42050:1,2010-12-01T05:30:00Z,28.8425,-94.2433,2.0,83.98755613,17.37558057,-99999.0,'11111222,11111222,99999999' 
TABS,ioos:station:wmo:42050:1,2010-12-01T06:00:00Z,28.8425,-94.2433,2.0,83.92154082,18.13194143,-99999.0,'11111222,11111222,99999999' 
TABS,ioos:station:wmo:42050:1,2010-12-01T06:30:00Z,28.8425,-94.2433,2.0,100.2996747,19.91084378,-99999.0,'11111222,11111222,99999999' 
TABS,ioos:station:wmo:42050:1,2010-12-01T07:00:00Z,28.8425,-94.2433,2.0,104.1383558,17.68572588,-99999.0,'11111222,11111222,99999999' 
TABS,ioos:station:wmo:42050:1,2010-12-01T07:30:00Z,28.8425,-94.2433,2.0,122.1113368,16.61125522,-99999.0,'11111222,11111222,99999999' 
TABS,ioos:station:wmo:42050:1,2010-12-01T08:00:00Z,28.8425,-94.2433,2.0,119.2462971,16.25164607,-99999.0,'11111222,11111222,99999999' 
TABS,ioos:station:wmo:42050:1,2010-12-01T08:30:00Z,28.8425,-94.2433,2.0,134.4132704,14.50352026,-99999.0,'11111222,11111222,99999999' 
TABS,ioos:station:wmo:42050:1,2010-12-01T09:00:00Z,28.8425,-94.2433,2.0,143.5272526,11.82628429,-99999.0,'11111222,11111222,99999999' 
TABS,ioos:station:wmo:42050:1,2010-12-01T09:30:00Z,28.8425,-94.2433,2.0,128.4515015,12.46274849,-99999.0,'11111222,11111222,99999999' 
TABS,ioos:station:wmo:42050:1,2010-12-01T10:00:00Z,28.8425,-94.2433,2.0,131.8148785,8.654212847,-99999.0,'11133222,11111222,99999999' 
TABS,ioos:station:wmo:42050:1,2010-12-01T10:30:00Z,28.8425,-94.2433,2.0,138.6994234,7.999906249,-99999.0,'11133222,11111222,99999999' 
TABS,ioos:station:wmo:42050:1,2010-12-01T11:00:00Z,28.8425,-94.2433,2.0,122.477956,6.424865757,-99999.0,'11133222,11111222,99999999' 
TABS,ioos:station:wmo:42050:1,2010-12-01T11:30:00Z,28.8425,-94.2433,2.0,69.02224184,4.134005322,-99999.0,'11133222,11111222,99999999' 
TABS,ioos:station:wmo:42050:1,2010-12-01T12:00:00Z,28.8425,-94.2433,2.0,58.83492603,7.80666382,-99999.0,'11133222,11111222,99999999' 
TABS,ioos:station:wmo:42050:1,2010-12-01T12:30:00Z,28.8425,-94.2433,2.0,58.18204296,7.131703864,-99999.0,'11133222,11111222,99999999' 
TABS,ioos:station:wmo:42050:1,2010-12-01T13:00:00Z,28.8425,-94.2433,2.0,31.16353017,8.367466761,-99999.0,'11133222,11111222,99999999' 
TABS,ioos:station:wmo:42050:1,2010-12-01T13:30:00Z,28.8425,-94.2433,2.0,25.31682371,11.08458389,-99999.0,'11111222,11111222,99999999' 
TABS,ioos:station:wmo:42050:1,2010-12-01T14:00:00Z,28.8425,-94.2433,2.0,27.47098406,11.31591799,-99999.0,'11111222,11111222,99999999' 
TABS,ioos:station:wmo:42050:1,2010-12-01T14:30:00Z,28.8425,-94.2433,2.0,32.57308227,12.09198908,-99999.0,'11111222,11111222,99999999' 
TABS,ioos:station:wmo:42050:1,2010-12-01T15:00:00Z,28.8425,-94.2433,2.0,35.06300566,11.92392972,-99999.0,'11111222,11111222,99999999' 
TABS,ioos:station:wmo:42050:1,2010-12-01T15:30:00Z,28.8425,-94.2433,2.0,25.52611251,16.5227873,-99999.0,'11111222,11111222,99999999' 
TABS,ioos:station:wmo:42050:1,2010-12-01T16:00:00Z,28.8425,-94.2433,2.0,24.18666856,15.84053661,-99999.0,'11111222,11111222,99999999' 
TABS,ioos:station:wmo:42050:1,2010-12-01T16:30:00Z,28.8425,-94.2433,2.0,22.08514872,17.6338453,-99999.0,'11111222,11111222,99999999' 
TABS,ioos:station:wmo:42050:1,2010-12-01T17:00:00Z,28.8425,-94.2433,2.0,31.06186367,12.0357883,-99999.0,'11111222,11111222,99999999' 
TABS,ioos:station:wmo:42050:1,2010-12-01T17:30:00Z,28.8425,-94.2433,2.0,47.33876776,12.12991344,-99999.0,'11111222,11111222,99999999' 
TABS,ioos:station:wmo:42050:1,2010-12-01T18:00:00Z,28.8425,-94.2433,2.0,56.70187601,7.704965931,-99999.0,'11133222,11111222,99999999' 
TABS,ioos:station:wmo:42050:1,2010-12-01T18:30:00Z,28.8425,-94.2433,2.0,64.75811397,5.22932118,-99999.0,'11133222,11111222,99999999' 
TABS,ioos:station:wmo:42050:1,2010-12-01T19:00:00Z,28.8425,-94.2433,2.0,122.5437511,6.654960556,-99999.0,'11133222,11111222,99999999' 
TABS,ioos:station:wmo:42050:1,2010-12-01T19:30:00Z,28.8425,-94.2433,2.0,139.1221829,7.869243928,-99999.0,'11133222,11111222,99999999' 
TABS,ioos:station:wmo:42050:1,2010-12-01T20:00:00Z,28.8425,-94.2433,2.0,161.8117496,8.073369804,-99999.0,'11133222,11111222,99999999' 
TABS,ioos:station:wmo:42050:1,2010-12-01T20:30:00Z,28.8425,-94.2433,2.0,166.0961796,11.52774913,-99999.0,'11111222,11111222,99999999' 
TABS,ioos:station:wmo:42050:1,2010-12-01T21:00:00Z,28.8425,-94.2433,2.0,178.1315353,10.73570678,-99999.0,'11111222,11111222,99999999' 
TABS,ioos:station:wmo:42050:1,2010-12-01T21:30:00Z,28.8425,-94.2433,2.0,167.2005767,10.11124127,-99999.0,'11111222,11111222,99999999' 
TABS,ioos:station:wmo:42050:1,2010-12-01T22:00:00Z,28.8425,-94.2433,2.0,181.6363628,13.65557029,-99999.0,'11111222,11111222,99999999' 
TABS,ioos:station:wmo:42050:1,2010-12-01T22:30:00Z,28.8425,-94.2433,2.0,186.7923352,11.32952338,-99999.0,'11111222,11111222,99999999' 
TABS,ioos:station:wmo:42050:1,2010-12-01T23:00:00Z,28.8425,-94.2433,2.0,187.9769409,9.007158264,-99999.0,'11133222,11111222,99999999' 
TABS,ioos:station:wmo:42050:1,2010-12-01T23:30:00Z,28.8425,-94.2433,2.0,199.2820487,10.47777171,-99999.0,'11111222,11111222,99999999' 
TABS,ioos:station:wmo:42050:1,2010-12-02T00:00:00Z,28.8425,-94.2433,2.0,204.0829294,7.229280739,-99999.0,'11133222,11111222,99999999' 
TABS,ioos:station:wmo:42050:1,2010-12-02T00:30:00Z,28.8425,-94.2433,2.0,211.2718945,8.283501675,-99999.0,'11133222,11111222,99999999' 
TABS,ioos:station:wmo:42050:1,2010-12-02T01:00:00Z,28.8425,-94.2433,2.0,214.9748589,5.565042677,-99999.0,'11133222,11111222,99999999' 
TABS,ioos:station:wmo:42050:1,2010-12-02T01:30:00Z,28.8425,-94.2433,2.0,229.7401838,4.363633807,-99999.0,'11133222,11111222,99999999' 
TABS,ioos:station:wmo:42050:1,2010-12-02T02:00:00Z,28.8425,-94.2433,2.0,245.2021183,5.364643511,-99999.0,'11133222,11111222,99999999' 
TABS,ioos:station:wmo:42050:1,2010-12-02T02:30:00Z,28.8425,-94.2433,2.0,272.1987905,5.213837358,-99999.0,'11133222,11111222,99999999' 
TABS,ioos:station:wmo:42050:1,2010-12-02T03:00:00Z,28.8425,-94.2433,2.0,268.6836778,6.531722591,-99999.0,'11133222,11111222,99999999' 
TABS,ioos:station:wmo:42050:1,2010-12-02T03:30:00Z,28.8425,-94.2433,2.0,271.6821933,5.792495145,-99999.0,'11133222,11111222,99999999' 
TABS,ioos:station:wmo:42050:1,2010-12-02T04:00:00Z,28.8425,-94.2433,2.0,285.8616627,6.549358747,-99999.0,'11133222,11111222,99999999' 
TABS,ioos:station:wmo:42050:1,2010-12-02T04:30:00Z,28.8425,-94.2433,2.0,280.2592807,7.80477418,-99999.0,'11133222,11111222,99999999' 
TABS,ioos:station:wmo:42050:1,2010-12-02T05:00:00Z,28.8425,-94.2433,2.0,261.2463092,6.111178282,-99999.0,'11133222,11111222,99999999' 
TABS,ioos:station:wmo:42050:1,2010-12-02T05:30:00Z,28.8425,-94.2433,2.0,247.6801909,6.161623163,-99999.0,'11133222,11111222,99999999' 
TABS,ioos:station:wmo:42050:1,2010-12-02T06:00:00Z,28.8425,-94.2433,2.0,224.7805816,7.396391012,-99999.0,'11133222,11111222,99999999' 
TABS,ioos:station:wmo:42050:1,2010-12-02T06:30:00Z,28.8425,-94.2433,2.0,217.4581883,8.566452008,-99999.0,'11133222,11111222,99999999' 
TABS,ioos:station:wmo:42050:1,2010-12-02T07:00:00Z,28.8425,-94.2433,2.0,223.2618786,11.65848189,-99999.0,'11111222,11111222,99999999' 
TABS,ioos:station:wmo:42050:1,2010-12-02T07:30:00Z,28.8425,-94.2433,2.0,209.6207824,10.90515933,-99999.0,'11111222,11111222,99999999' 
TABS,ioos:station:wmo:42050:1,2010-12-02T08:00:00Z,28.8425,-94.2433,2.0,217.6378582,15.06535429,-99999.0,'11111222,11111222,99999999' 
TABS,ioos:station:wmo:42050:1,2010-12-02T08:30:00Z,28.8425,-94.2433,2.0,217.2536465,14.32232174,-99999.0,'11111222,11111222,99999999' 
TABS,ioos:station:wmo:42050:1,2010-12-02T09:00:00Z,28.8425,-94.2433,2.0,216.1470335,14.74917286,-99999.0,'11111222,11111222,99999999' 
TABS,ioos:station:wmo:42050:1,2010-12-02T09:30:00Z,28.8425,-94.2433,2.0,218.7253644,12.22841363,-99999.0,'11111222,11111222,99999999' 
TABS,ioos:station:wmo:42050:1,2010-12-02T10:00:00Z,28.8425,-94.2433,2.0,229.8140246,10.61577129,-99999.0,'11111222,11111222,99999999' 
TABS,ioos:station:wmo:42050:1,2010-12-02T10:30:00Z,28.8425,-94.2433,2.0,229.3429141,11.2044634,-99999.0,'11111222,11111222,99999999' 
TABS,ioos:station:wmo:42050:1,2010-12-02T11:00:00Z,28.8425,-94.2433,2.0,240.7567896,10.05092036,-99999.0,'11111222,11111222,99999999' 
TABS,ioos:station:wmo:42050:1,2010-12-02T11:30:00Z,28.8425,-94.2433,2.0,245.9999814,9.391954003,-99999.0,'11133222,11111222,99999999' 
TABS,ioos:station:wmo:42050:1,2010-12-02T12:00:00Z,28.8425,-94.2433,2.0,256.436441,7.931185283,-99999.0,'11133222,11111222,99999999' 
TABS,ioos:station:wmo:42050:1,2010-12-02T12:30:00Z,28.8425,-94.2433,2.0,308.2836262,6.892096923,-99999.0,'11133222,11111222,99999999' 
TABS,ioos:station:wmo:42050:1,2010-12-02T13:00:00Z,28.8425,-94.2433,2.0,311.6278652,7.933334734,-99999.0,'11133222,11111222,99999999' 
TABS,ioos:station:wmo:42050:1,2010-12-02T13:30:00Z,28.8425,-94.2433,2.0,313.4694726,11.38141028,-99999.0,'11111222,11111222,99999999' 
TABS,ioos:station:wmo:42050:1,2010-12-02T14:00:00Z,28.8425,-94.2433,2.0,326.6805485,12.01505722,-99999.0,'11111222,11111222,99999999' 
TABS,ioos:station:wmo:42050:1,2010-12-02T14:30:00Z,28.8425,-94.2433,2.0,331.742715,13.47595266,-99999.0,'11111222,11111222,99999999' 
TABS,ioos:station:wmo:42050:1,2010-12-02T15:00:00Z,28.8425,-94.2433,2.0,334.4652243,14.42944212,-99999.0,'11111222,11111222,99999999' 
TABS,ioos:station:wmo:42050:1,2010-12-02T15:30:00Z,28.8425,-94.2433,2.0,344.9942089,15.33287318,-99999.0,'11111222,11111222,99999999' 
TABS,ioos:station:wmo:42050:1,2010-12-02T16:00:00Z,28.8425,-94.2433,2.0,349.5375149,12.33509222,-99999.0,'11111222,11111222,99999999' 
TABS,ioos:station:wmo:42050:1,2010-12-02T16:30:00Z,28.8425,-94.2433,2.0,346.8815693,12.11620815,-99999.0,'11111222,11111222,99999999' 
TABS,ioos:station:wmo:42050:1,2010-12-02T17:00:00Z,28.8425,-94.2433,2.0,352.3639246,11.81477888,-99999.0,'11111222,11111222,99999999' 
TABS,ioos:station:wmo:42050:1,2010-12-02T17:30:00Z,28.8425,-94.2433,2.0,0.980458551,10.52153981,-99999.0,'11111222,11111222,99999999' 
TABS,ioos:station:wmo:42050:1,2010-12-02T18:00:00Z,28.8425,-94.2433,2.0,4.805800465,6.803917989,-99999.0,'11133222,11111222,99999999' 
TABS,ioos:station:wmo:42050:1,2010-12-02T18:30:00Z,28.8425,-94.2433,2.0,11.40399239,7.181782509,-99999.0,'11133222,11111222,99999999' 
TABS,ioos:station:wmo:42050:1,2010-12-02T19:00:00Z,28.8425,-94.2433,2.0,7.224509259,3.578407467,-99999.0,'11133222,11111222,99999999' 
TABS,ioos:station:wmo:42050:1,2010-12-02T19:30:00Z,28.8425,-94.2433,2.0,12.5648809,5.194400832,-99999.0,'11133222,11111222,99999999' 
TABS,ioos:station:wmo:42050:1,2010-12-02T20:00:00Z,28.8425,-94.2433,2.0,349.5228114,1.484755872,-99999.0,'11133222,11111222,99999999' 
TABS,ioos:station:wmo:42050:1,2010-12-02T20:30:00Z,28.8425,-94.2433,2.0,210.8273798,2.888044321,-99999.0,'11133222,11111222,99999999' 
TABS,ioos:station:wmo:42050:1,2010-12-02T21:00:00Z,28.8425,-94.2433,2.0,222.3645059,1.691774217,-99999.0,'11133222,11111222,99999999' 
TABS,ioos:station:wmo:42050:1,2010-12-02T21:30:00Z,28.8425,-94.2433,2.0,190.2037394,3.556248023,-99999.0,'11133222,11111222,99999999' 
TABS,ioos:station:wmo:42050:1,2010-12-02T22:00:00Z,28.8425,-94.2433,2.0,203.7884023,5.354960317,-99999.0,'11133222,11111222,99999999' 
TABS,ioos:station:wmo:42050:1,2010-12-02T22:30:00Z,28.8425,-94.2433,2.0,200.4325704,4.353940744,-99999.0,'11133222,11111222,99999999' 
TABS,ioos:station:wmo:42050:1,2010-12-02T23:00:00Z,28.8425,-94.2433,2.0,202.9724572,2.997749156,-99999.0,'11133222,11111222,99999999' 
TABS,ioos:station:wmo:42050:1,2010-12-02T23:30:00Z,28.8425,-94.2433,2.0,235.3413054,0.984733466,-99999.0,'11133222,11111222,99999999' 
TABS,ioos:station:wmo:42050:1,2010-12-03T00:00:00Z,28.8425,-94.2433,2.0,300.0760802,3.651643466,-99999.0,'11133222,11111222,99999999' 
TABS,ioos:station:wmo:42050:1,2010-12-03T00:30:00Z,28.8425,-94.2433,2.0,281.8890512,2.524143419,-99999.0,'11133222,11111222,99999999' 
TABS,ioos:station:wmo:42050:1,2010-12-03T01:00:00Z,28.8425,-94.2433,2.0,349.2159378,0.64132675,-99999.0,'11133222,11111222,99999999' 
TABS,ioos:station:wmo:42050:1,2010-12-03T01:30:00Z,28.8425,-94.2433,2.0,21.54113601,2.85973775,-99999.0,'11133222,11111222,99999999' 
TABS,ioos:station:wmo:42050:1,2010-12-03T02:00:00Z,28.8425,-94.2433,2.0,340.9231637,2.539468448,-99999.0,'11133222,11111222,99999999' 
TABS,ioos:station:wmo:42050:1,2010-12-03T02:30:00Z,28.8425,-94.2433,2.0,345.5838087,3.655092338,-99999.0,'11133222,11111222,99999999' 
TABS,ioos:station:wmo:42050:1,2010-12-03T03:00:00Z,28.8425,-94.2433,2.0,67.55092798,1.8069311,-99999.0,'11133222,11111222,99999999' 
TABS,ioos:station:wmo:42050:1,2010-12-03T03:30:00Z,28.8425,-94.2433,2.0,348.9849892,2.669175903,-99999.0,'11133222,11111222,99999999' 
TABS,ioos:station:wmo:42050:1,2010-12-03T04:00:00Z,28.8425,-94.2433,2.0,255.815318,0.938616002,-99999.0,'11133222,11111222,99999999' 
TABS,ioos:station:wmo:42050:1,2010-12-03T04:30:00Z,28.8425,-94.2433,2.0,188.3656561,0.687313611,-99999.0,'11133222,11111222,99999999' 
TABS,ioos:station:wmo:42050:1,2010-12-03T05:00:00Z,28.8425,-94.2433,2.0,202.6935314,2.38461737,-99999.0,'11133222,11111222,99999999' 
TABS,ioos:station:wmo:42050:1,2010-12-03T05:30:00Z,28.8425,-94.2433,2.0,153.8382843,4.445413367,-99999.0,'11133222,11111222,99999999' 
TABS,ioos:station:wmo:42050:1,2010-12-03T06:00:00Z,28.8425,-94.2433,2.0,191.9330657,5.948554446,-99999.0,'11133222,11111222,99999999' 
TABS,ioos:station:wmo:42050:1,2010-12-03T06:30:00Z,28.8425,-94.2433,2.0,184.7582265,9.161577375,-99999.0,'11133222,11111222,99999999' 
TABS,ioos:station:wmo:42050:1,2010-12-03T07:00:00Z,28.8425,-94.2433,2.0,192.877476,11.75567948,-99999.0,'11111222,11111222,99999999' 
TABS,ioos:station:wmo:42050:1,2010-12-03T07:30:00Z,28.8425,-94.2433,2.0,189.9120665,12.14123964,-99999.0,'11111222,11111222,99999999' 
TABS,ioos:station:wmo:42050:1,2010-12-03T08:00:00Z,28.8425,-94.2433,2.0,188.0815131,15.07976459,-99999.0,'11111222,11111222,99999999' 
TABS,ioos:station:wmo:42050:1,2010-12-03T08:30:00Z,28.8425,-94.2433,2.0,199.5076877,16.3803083,-99999.0,'11111222,11111222,99999999' 
TABS,ioos:station:wmo:42050:1,2010-12-03T09:00:00Z,28.8425,-94.2433,2.0,196.6930348,18.41612609,-99999.0,'11111222,11111222,99999999' 
TABS,ioos:station:wmo:42050:1,2010-12-03T09:30:00Z,28.8425,-94.2433,2.0,196.8581489,16.89612086,-99999.0,'11111222,11111222,99999999' 
TABS,ioos:station:wmo:42050:1,2010-12-03T10:00:00Z,28.8425,-94.2433,2.0,210.9198934,15.78301936,-99999.0,'11111222,11111222,99999999' 
TABS,ioos:station:wmo:42050:1,2010-12-03T10:30:00Z,28.8425,-94.2433,2.0,201.8537542,14.15741855,-99999.0,'11111222,11111222,99999999' 
TABS,ioos:station:wmo:42050:1,2010-12-03T11:00:00Z,28.8425,-94.2433,2.0,212.966752,10.98948588,-99999.0,'11111222,11111222,99999999' 
TABS,ioos:station:wmo:42050:1,2010-12-03T11:30:00Z,28.8425,-94.2433,2.0,218.0574452,10.99836351,-99999.0,'11111222,11111222,99999999' 
TABS,ioos:station:wmo:42050:1,2010-12-03T12:00:00Z,28.8425,-94.2433,2.0,217.5123136,8.736549662,-99999.0,'11133222,11111222,99999999' 
TABS,ioos:station:wmo:42050:1,2010-12-03T12:30:00Z,28.8425,-94.2433,2.0,223.9796916,4.766655012,-99999.0,'11133222,11111222,99999999' 
TABS,ioos:station:wmo:42050:1,2010-12-03T13:00:00Z,28.8425,-94.2433,2.0,273.2907995,5.749478237,-99999.0,'11133222,11111222,99999999' 
TABS,ioos:station:wmo:42050:1,2010-12-03T13:30:00Z,28.8425,-94.2433,2.0,280.6649715,6.268269299,-99999.0,'11133222,11111222,99999999' 
TABS,ioos:station:wmo:42050:1,2010-12-03T14:00:00Z,28.8425,-94.2433,2.0,310.0355814,7.02672043,-99999.0,'11133222,11111222,99999999' 
TABS,ioos:station:wmo:42050:1,2010-12-03T14:30:00Z,28.8425,-94.2433,2.0,321.0188362,8.902044709,-99999.0,'11133222,11111222,99999999' 
TABS,ioos:station:wmo:42050:1,2010-12-03T15:00:00Z,28.8425,-94.2433,2.0,325.1917937,10.2306207,-99999.0,'11111222,11111222,99999999' 
TABS,ioos:station:wmo:42050:1,2010-12-03T15:30:00Z,28.8425,-94.2433,2.0,336.4589571,12.29312816,-99999.0,'11111222,11111222,99999999' 
TABS,ioos:station:wmo:42050:1,2010-12-03T16:00:00Z,28.8425,-94.2433,2.0,339.7321532,13.7408042,-99999.0,'11111222,11111222,99999999' 
TABS,ioos:station:wmo:42050:1,2010-12-03T16:30:00Z,28.8425,-94.2433,2.0,335.1508898,12.39784659,-99999.0,'11111222,11111222,99999999' 
TABS,ioos:station:wmo:42050:1,2010-12-03T17:00:00Z,28.8425,-94.2433,2.0,337.514076,13.5177291,-99999.0,'11111222,11111222,99999999' 
TABS,ioos:station:wmo:42050:1,2010-12-03T17:30:00Z,28.8425,-94.2433,2.0,343.0441742,17.52169227,-99999.0,'11111222,11111222,99999999' 
TABS,ioos:station:wmo:42050:1,2010-12-03T18:00:00Z,28.8425,-94.2433,2.0,340.3936953,17.94018952,-99999.0,'11111222,11111222,99999999' 
TABS,ioos:station:wmo:42050:1,2010-12-03T18:30:00Z,28.8425,-94.2433,2.0,344.917828,18.33147294,-99999.0,'11111222,11111222,99999999' 
TABS,ioos:station:wmo:42050:1,2010-12-03T19:00:00Z,28.8425,-94.2433,2.0,351.290427,16.77343137,-99999.0,'11111222,11111222,99999999' 
TABS,ioos:station:wmo:42050:1,2010-12-03T19:30:00Z,28.8425,-94.2433,2.0,352.7909069,16.01662262,-99999.0,'11111222,11111222,99999999' 
TABS,ioos:station:wmo:42050:1,2010-12-03T20:00:00Z,28.8425,-94.2433,2.0,350.4740214,14.74331035,-99999.0,'11111222,11111222,99999999' 
TABS,ioos:station:wmo:42050:1,2010-12-03T20:30:00Z,28.8425,-94.2433,2.0,359.4536867,12.58057232,-99999.0,'11111222,11144222,99999999' 
TABS,ioos:station:wmo:42050:1,2010-12-03T21:00:00Z,28.8425,-94.2433,2.0,358.5653594,10.38325575,-99999.0,'11111222,11111222,99999999' 
TABS,ioos:station:wmo:42050:1,2010-12-03T21:30:00Z,28.8425,-94.2433,2.0,5.496781227,7.725522636,-99999.0,'11133222,11111222,99999999' 
TABS,ioos:station:wmo:42050:1,2010-12-03T22:00:00Z,28.8425,-94.2433,2.0,1.397388219,4.101219331,-99999.0,'11133222,11111222,99999999' 
TABS,ioos:station:wmo:42050:1,2010-12-03T22:30:00Z,28.8425,-94.2433,2.0,6.540580993,4.740854353,-99999.0,'11133222,11111222,99999999' 
TABS,ioos:station:wmo:42050:1,2010-12-03T23:00:00Z,28.8425,-94.2433,2.0,35.24074678,3.587450348,-99999.0,'11133222,11111222,99999999' 
TABS,ioos:station:wmo:42050:1,2010-12-03T23:30:00Z,28.8425,-94.2433,2.0,56.07028192,3.977235221,-99999.0,'11133222,11111222,99999999' 
TABS,ioos:station:wmo:42050:1,2010-12-04T00:00:00Z,28.8425,-94.2433,2.0,45.64224622,5.678424077,-99999.0,'11133222,11111222,99999999' 
TABS,ioos:station:wmo:42050:1,2010-12-04T00:30:00Z,28.8425,-94.2433,2.0,58.71867175,4.94952523,-99999.0,'11133222,11111222,99999999' 
TABS,ioos:station:wmo:42050:1,2010-12-04T01:00:00Z,28.8425,-94.2433,2.0,65.2716022,6.000216663,-99999.0,'11133222,11111222,99999999' 
TABS,ioos:station:wmo:42050:1,2010-12-04T01:30:00Z,28.8425,-94.2433,2.0,40.33763004,5.654352306,-99999.0,'11133222,11111222,99999999' 
TABS,ioos:station:wmo:42050:1,2010-12-04T02:00:00Z,28.8425,-94.2433,2.0,35.54542729,8.738335082,-99999.0,'11133222,11111222,99999999' 
TABS,ioos:station:wmo:42050:1,2010-12-04T02:30:00Z,28.8425,-94.2433,2.0,41.83490624,9.22059651,-99999.0,'11133222,11111222,99999999' 
TABS,ioos:station:wmo:42050:1,2010-12-04T03:00:00Z,28.8425,-94.2433,2.0,29.52217597,8.929328082,-99999.0,'11133222,11111222,99999999' 
TABS,ioos:station:wmo:42050:1,2010-12-04T03:30:00Z,28.8425,-94.2433,2.0,23.25232981,9.828290797,-99999.0,'11133222,11111222,99999999' 
TABS,ioos:station:wmo:42050:1,2010-12-04T04:00:00Z,28.8425,-94.2433,2.0,53.67112273,12.71056647,-99999.0,'11111222,11111222,99999999' 
TABS,ioos:station:wmo:42050:1,2010-12-04T04:30:00Z,28.8425,-94.2433,2.0,45.31857193,13.99385937,-99999.0,'11111222,11111222,99999999' 
TABS,ioos:station:wmo:42050:1,2010-12-04T05:00:00Z,28.8425,-94.2433,2.0,43.44401986,13.80074273,-99999.0,'11111222,11111222,99999999' 
TABS,ioos:station:wmo:42050:1,2010-12-04T05:30:00Z,28.8425,-94.2433,2.0,42.05789001,12.6739181,-99999.0,'11111222,11111222,99999999' 
TABS,ioos:station:wmo:42050:1,2010-12-04T06:00:00Z,28.8425,-94.2433,2.0,36.60380759,7.748083634,-99999.0,'11133222,11111222,99999999' 
TABS,ioos:station:wmo:42050:1,2010-12-04T06:30:00Z,28.8425,-94.2433,2.0,28.63025362,9.308087881,-99999.0,'11133222,11111222,99999999' 
TABS,ioos:station:wmo:42050:1,2010-12-04T07:00:00Z,28.8425,-94.2433,2.0,21.80156896,3.554208773,-99999.0,'11133222,11111222,99999999' 
TABS,ioos:station:wmo:42050:1,2010-12-04T07:30:00Z,28.8425,-94.2433,2.0,29.34762915,3.040164469,-99999.0,'11133222,11111222,99999999' 
TABS,ioos:station:wmo:42050:1,2010-12-04T08:00:00Z,28.8425,-94.2433,2.0,23.49872118,2.507987241,-99999.0,'11133222,11111222,99999999' 
TABS,ioos:station:wmo:42050:1,2010-12-04T08:30:00Z,28.8425,-94.2433,2.0,276.8928279,3.666496966,-99999.0,'11133222,11111222,99999999' 
TABS,ioos:station:wmo:42050:1,2010-12-04T09:00:00Z,28.8425,-94.2433,2.0,240.0180098,0.30016662,-99999.0,'11133222,11111222,99999999' 
TABS,ioos:station:wmo:42050:1,2010-12-04T09:30:00Z,28.8425,-94.2433,2.0,194.7530257,6.008077896,-99999.0,'11133222,11111222,99999999' 
TABS,ioos:station:wmo:42050:1,2010-12-04T10:00:00Z,28.8425,-94.2433,2.0,185.5709111,13.08179269,-99999.0,'11111222,11111222,99999999' 
TABS,ioos:station:wmo:42050:1,2010-12-04T10:30:00Z,28.8425,-94.2433,2.0,189.2980883,14.35866637,-99999.0,'11111222,11111222,99999999' 
TABS,ioos:station:wmo:42050:1,2010-12-04T11:00:00Z,28.8425,-94.2433,2.0,188.5095734,16.21855727,-99999.0,'11111222,11111222,99999999' 
TABS,ioos:station:wmo:42050:1,2010-12-04T11:30:00Z,28.8425,-94.2433,2.0,188.9161915,14.83932613,-99999.0,'11111222,11111222,99999999' 
TABS,ioos:station:wmo:42050:1,2010-12-04T12:00:00Z,28.8425,-94.2433,2.0,191.2380263,14.11056696,-99999.0,'11111222,11111222,99999999' 
TABS,ioos:station:wmo:42050:1,2010-12-04T12:30:00Z,28.8425,-94.2433,2.0,204.1747383,10.40229302,-99999.0,'11111222,11111222,99999999' 
TABS,ioos:station:wmo:42050:1,2010-12-04T13:00:00Z,28.8425,-94.2433,2.0,205.9237779,8.394724534,-99999.0,'11133222,11111222,99999999' 
TABS,ioos:station:wmo:42050:1,2010-12-04T13:30:00Z,28.8425,-94.2433,2.0,212.9338004,8.828822118,-99999.0,'11133222,11111222,99999999' 
TABS,ioos:station:wmo:42050:1,2010-12-04T14:00:00Z,28.8425,-94.2433,2.0,242.8201831,8.341013128,-99999.0,'11133222,11111222,99999999' 
TABS,ioos:station:wmo:42050:1,2010-12-04T14:30:00Z,28.8425,-94.2433,2.0,261.622837,4.599065122,-99999.0,'11133222,11111222,99999999' 
TABS,ioos:station:wmo:42050:1,2010-12-04T15:00:00Z,28.8425,-94.2433,2.0,269.3154845,6.700477595,-99999.0,'11133222,11111222,99999999' 
TABS,ioos:station:wmo:42050:1,2010-12-04T15:30:00Z,28.8425,-94.2433,2.0,299.890206,6.862863834,-99999.0,'11133222,11111222,99999999' 
TABS,ioos:station:wmo:42050:1,2010-12-04T16:00:00Z,28.8425,-94.2433,2.0,315.8006137,8.606329066,-99999.0,'11133222,11111222,99999999' 